This is the latest recevied weather packets stored in our database for station/object vk4zu-13. If no packets are shown the sender has not sent any weather packets the latest 10 day(s).
| Time | Temp. | Humidity | Pressure | Rain* | Wind** | Luminosity | Snow |
|---|---|---|---|---|---|---|---|
| 1778209184 | 22.78° C | 27% | 1017.9 hPa | 0 mm | - | 698 W/m² | - |
| 1778209122 | 22.78° C | 27% | 1017.8 hPa | 0 mm | - | 698 W/m² | - |
| 1778209061 | 22.78° C | 27% | 1017.9 hPa | 0 mm | - | 698 W/m² | - |
| 1778209002 | 22.78° C | 26% | 1017.9 hPa | 0 mm | - | 700 W/m² | - |
| 1778208946 | 23.33° C | 29% | 1017.9 hPa | 0 mm | - | 696 W/m² | - |
| 1778208876 | 22.78° C | 28% | 1017.8 hPa | 0 mm | - | 703 W/m² | - |
| 1778208816 | 22.78° C | 24% | 1017.8 hPa | 0 mm | - | 703 W/m² | - |
| 1778208755 | 22.78° C | 30% | 1017.8 hPa | 0 mm | - | 705 W/m² | - |
| 1778208696 | 22.22° C | 26% | 1017.8 hPa | 0 mm | - | 705 W/m² | - |
| 1778208632 | 22.22° C | 28% | 1017.8 hPa | 0 mm | - | 705 W/m² | - |
| 1778208568 | 22.22° C | 24% | 1017.8 hPa | 0 mm | - | 707 W/m² | - |
| 1778208509 | 22.22° C | 27% | 1017.9 hPa | 0 mm | - | 705 W/m² | - |
| 1778208438 | 22.22° C | 23% | 1017.9 hPa | 0 mm | - | 707 W/m² | - |
| 1778208369 | 22.22° C | 28% | 1017.7 hPa | 0 mm | - | 710 W/m² | - |
| 1778208313 | 22.22° C | 30% | 1017.7 hPa | 0 mm | - | 710 W/m² | - |
| 1778208243 | 21.67° C | 26% | 1017.8 hPa | 0 mm | - | 710 W/m² | - |
| 1778208184 | 21.67° C | 28% | 1017.9 hPa | 0 mm | - | 712 W/m² | - |
| 1778208121 | 21.67° C | 22% | 1017.9 hPa | 0 mm | - | 714 W/m² | - |
| 1778208061 | 22.22° C | 24% | 1018 hPa | 0 mm | - | 715 W/m² | - |
| 1778207998 | 22.22° C | 22% | 1018 hPa | 0 mm | - | 715 W/m² | - |
| 1778207934 | 22.22° C | 27% | 1018.2 hPa | 0 mm | - | 717 W/m² | - |
| 1778207874 | 21.67° C | 23% | 1018.1 hPa | 0 mm | - | 717 W/m² | - |
| 1778207808 | 22.22° C | 24% | 1018.2 hPa | 0 mm | - | 719 W/m² | - |
| 1778207742 | 22.22° C | 27% | 1018.2 hPa | 0 mm | - | 719 W/m² | - |
| 1778207673 | 22.22° C | 23% | 1018.2 hPa | 0 mm | - | 719 W/m² | - |
* Rain latest hour (hover to see other rain measurements)
** Current wind speed in m/s (hover to see current wind gust speed)